Simultaneous Nadir Overpasses (SNOs) Predictions

Prediction of SNOs between TERRA and METOP-C Satellite Orbit:

Table of predicted SNOs for the next 14.0 days since TLE Epoch: 5/15/2021
Index Date (TERRA) Time (TERRA) Lat,Lon (TERRA) SZA (TERRA ) Date (METOP-C) Time (METOP-C) Lat,Lon (METOP-C) SZA (METOP-C ) Distance(km) Time Diff (sec)
1 05/15/2021 06:32:39 81.29, 127.75 65.21 05/15/2021 06:31:45 81.29, 127.63 65.17 2.04 54
2 05/15/2021 07:22:05 -81.30, -64.35 114.76 05/15/2021 07:22:24 -81.30, -64.47 114.77 2.18 19
3 05/18/2021 02:06:50 81.29,-165.74 64.58 05/18/2021 02:06:05 81.29,-165.63 64.58 1.98 45
4 05/18/2021 02:56:16 -81.31, 2.19 115.38 05/18/2021 02:56:44 -81.30, 2.35 115.36 2.64 28
5 05/20/2021 21:41:02 81.29, -99.28 63.99 05/20/2021 21:40:27 81.29, -99.30 63.97 0.28 35
6 05/20/2021 22:30:29 -81.29, 68.31 116.03 05/20/2021 22:31:07 -81.30, 68.36 116.00 1.30 38
7 05/23/2021 17:15:14 81.29, -32.86 63.43 05/23/2021 17:14:49 81.29, -32.99 63.41 2.17 25
8 05/23/2021 18:04:41 -81.29, 134.76 116.58 05/23/2021 18:05:29 -81.30, 134.75 116.55 0.81 48
9 05/26/2021 12:49:25 81.29, 33.53 62.92 05/26/2021 12:49:09 81.29, 33.70 62.94 2.98 16



Historial Predications of SNOs between TERRA and METOP-C
